This is the latest recevied weather packets stored in our database for station/object KB5DPX. If no packets are shown the sender has not sent any weather packets the latest 10 day(s).
| Time | Temp. | Humidity | Pressure | Rain* | Wind** | Luminosity | Snow |
|---|---|---|---|---|---|---|---|
| 1778094456 | 6.11° C | 60% | 1013.5 hPa | 0 mm | - | 526 W/m² | - |
| 1778094139 | 5.56° C | 61% | 1013.5 hPa | 0 mm | - | 628 W/m² | - |
| 1778093864 | 6.11° C | 60% | 1013.5 hPa | 0 mm | - | 589 W/m² | - |
| 1778093548 | 6.11° C | 61% | 1013.5 hPa | 0 mm | - | 951 W/m² | - |
| 1778093261 | 6.11° C | 59% | 1013.4 hPa | 0 mm | - | 951 W/m² | - |
| 1778092961 | 6.11° C | 61% | 1013.5 hPa | 0 mm | - | 1018 W/m² | - |
| 1778092664 | 6.11° C | 61% | 1013.5 hPa | 0 mm | - | 617 W/m² | - |
| 1778092368 | 6.11° C | 64% | 1013.5 hPa | 0 mm | - | 807 W/m² | - |
| 1778092064 | 6.11° C | 65% | 1013.4 hPa | 0 mm | - | 691 W/m² | - |
| 1778091749 | 6.11° C | 66% | 1013.4 hPa | 0 mm | - | 998 W/m² | - |
| 1778091462 | 6.11° C | 66% | 1013.4 hPa | 0 mm | - | 1002 W/m² | - |
| 1778091146 | 6.11° C | 66% | 1013.4 hPa | 0 mm | - | 515 W/m² | - |
| 1778090841 | 6.11° C | 67% | 1013.5 hPa | 0 mm | - | 1069 W/m² | - |
| 1778090549 | 6.67° C | 65% | 1013.5 hPa | 0 mm | - | 984 W/m² | - |
| 1778090264 | 6.11° C | 67% | 1013.5 hPa | 0 mm | - | 991 W/m² | - |
| 1778089968 | 6.11° C | 68% | 1013.5 hPa | 0 mm | - | 1011 W/m² | - |
| 1778089652 | 6.11° C | 70% | 1013.6 hPa | 0 mm | - | 1011 W/m² | - |
| 1778089364 | 6.11° C | 69% | 1013.6 hPa | 0 mm | - | 1004 W/m² | - |
| 1778089049 | 6.11° C | 66% | 1013.7 hPa | 0 mm | - | 954 W/m² | - |
| 1778088767 | 6.11° C | 65% | 1013.6 hPa | 0 mm | - | 965 W/m² | - |
| 1778088456 | 6.11° C | 64% | 1013.7 hPa | 0 mm | - | 998 W/m² | - |
| 1778088141 | 6.11° C | 64% | 1013.7 hPa | 0 mm | - | 981 W/m² | - |
| 1778087854 | 6.11° C | 63% | 1013.7 hPa | 0 mm | - | 976 W/m² | - |
| 1778087560 | 6.11° C | 64% | 1013.8 hPa | 0 mm | - | 970 W/m² | - |
| 1778087262 | 5.56° C | 64% | 1013.9 hPa | 0 mm | - | 981 W/m² | - |
* Rain latest hour (hover to see other rain measurements)
** Current wind speed in m/s (hover to see current wind gust speed)